FW5178 Weather Reports


time (UTC)temp
F
wind
direction
speed
knots
gust
knots
rain 1hr
in
rain 24hr
in
rain mn
in
humidity
%
barometer
mb
20260503184529 76 307 1.7 6.1 0.00 0.00 0.00 55 1014.9
20260503183028 75 320 1.7 4.3 0.00 0.00 0.00 55 1015.1
20260503181542 74 317 0.9 2.6 0.00 0.00 0.00 54 1015.2
20260503174530 72 270 0.9 3.5 0.00 0.00 0.00 55 1015.5
20260503171535 70 22 0.0 0.0 0.00 0.00 0.00 55 1015.7
20260503110107 52 113 0.9 3.5 0.00 0.00 0.00 83 1016.0
20260503100109 55 90 0.0 2.6 0.00 0.00 0.00 82 1015.8
20260503071530 59 112 0.0 1.7 0.00 0.00 0.00 75 1015.7
20260503054532 61 22 0.9 4.3 0.00 0.00 0.00 72 1015.6
20260503053146 61 74 0.9 3.5 0.00 0.00 0.00 71 1015.6
20260503051602 62 96 0.9 3.5 0.00 0.00 0.00 70 1015.5
20260503050029 62 103 1.7 3.5 0.00 0.00 0.00 69 1015.4
20260503044530 63 135 0.0 2.6 0.00 0.00 0.00 67 1015.3
20260503043106 63 120 0.9 2.6 0.00 0.00 0.00 65 1015.2
20260503041530 64 40 2.6 4.3 0.00 0.00 0.00 63 1014.9
20260503040145 65 71 1.7 4.3 0.00 0.00 0.00 62 1014.7
20260503034531 65 112 0.0 0.9 0.00 0.00 0.00 62 1014.4
20260503033030 67 114 2.6 4.3 0.00 0.00 0.00 62 1014.1
20260503031530 68 76 0.9 3.5 0.00 0.00 0.00 61 1013.8
20260503030030 69 146 0.0 3.5 0.00 0.00 0.00 58 1013.5
20260503024529 69 157 0.0 0.0 0.00 0.00 0.00 56 1013.3
20260503023031 70 157 0.0 0.0 0.00 0.00 0.00 57 1013.3
20260503021527 71 155 0.0 2.6 0.00 0.00 0.00 57 1013.2
20260503020030 72 22 0.0 0.9 0.00 0.00 0.00 53 1013.1
20260503014530 73 22 0.0 0.9 0.00 0.00 0.00 52 1013.1
20260503013031 74 22 0.0 1.7 0.00 0.00 0.00 53 1013.2
20260503011531 75 22 0.9 2.6 0.00 0.00 0.00 56 1013.2
20260503004529 78 22 1.7 2.6 0.00 0.00 0.00 53 1013.1
20260503003113 78 10 2.6 4.3 0.00 0.00 0.00 52 1013.1
20260503001532 79 339 2.6 4.3 0.00 0.00 0.00 51 1013.1
20260503000034 80 313 0.9 3.5 0.00 0.00 0.00 51 1013.2
20260502233033 78 332 1.7 4.3 0.00 0.00 0.00 51 1013.6
20260502231530 79 359 0.9 3.5 0.00 0.00 0.00 51 1013.8
20260502224531 80 328 3.5 7.0 0.00 0.00 0.00 51 1014.0
20260502223030 79 320 2.6 8.7 0.00 0.00 0.00 53 1014.3
20260502221528 77 287 1.7 5.2 0.00 0.00 0.00 55 1014.5
20260502220030 74 251 0.9 3.5 0.00 0.00 0.00 59 1014.8
20260502213032 73 244 2.6 6.1 0.00 0.00 0.00 61 1015.1
20260502211530 71 225 0.0 2.6 0.00 0.00 0.00 61 1015.4
20260502210030 72 227 0.9 4.3 0.00 0.00 0.00 62 1015.6
20260502204608 70 310 0.0 4.3 0.00 0.00 0.00 64 1015.6
20260502203031 68 264 2.6 5.2 0.00 0.00 0.00 69 1015.8
20260502201530 64 344 1.7 5.2 0.00 0.00 0.00 72 1015.8
20260502200028 63 219 2.6 7.0 0.00 0.00 0.00 73 1016.3
20260502194533 63 11 3.5 8.7 0.00 0.00 0.00 73 1015.8
20260502191606 67 358 2.6 6.1 0.00 0.00 0.00 68 1016.7
20260502190029 68 351 3.5 6.1 0.00 0.00 0.00 66 1017.1